This is the latest recevied weather packets stored in our database for station/object AB1AU. If no packets are shown the sender has not sent any weather packets the latest 10 day(s).
| Time | Temp. | Humidity | Pressure | Rain* | Wind** | Luminosity | Snow |
|---|---|---|---|---|---|---|---|
| 1777823752 | 5.56° C | 93% | 1006.1 hPa | 0 mm | - | 97 W/m² | - |
| 1777823450 | 5.56° C | 93% | 1006.2 hPa | 0 mm | - | 90 W/m² | - |
| 1777823147 | 5.56° C | 93% | 1006.3 hPa | 1.78 mm | - | 117 W/m² | - |
| 1777822844 | 5.56° C | 93% | 1006.5 hPa | 1.78 mm | - | 97 W/m² | - |
| 1777822542 | 5.56° C | 93% | 1006.4 hPa | 1.27 mm | - | 64 W/m² | - |
| 1777822239 | 5.56° C | 93% | 1006.3 hPa | 1.27 mm | - | 44 W/m² | - |
| 1777821937 | 5.56° C | 93% | 1006.5 hPa | 0 mm | - | 59 W/m² | - |
| 1777821635 | 5.56° C | 93% | 1006.4 hPa | 1.78 mm | - | 60 W/m² | - |
| 1777821333 | 5.56° C | 93% | 1006.5 hPa | 0 mm | - | 79 W/m² | - |
| 1777821029 | 5.56° C | 93% | 1006.5 hPa | 1.27 mm | - | 98 W/m² | - |
| 1777820726 | 5.56° C | 93% | 1006.5 hPa | 1.27 mm | - | 101 W/m² | - |
| 1777820422 | 5.56° C | 93% | 1006.5 hPa | 1.78 mm | - | 102 W/m² | - |
| 1777820120 | 5.56° C | 94% | 1006.5 hPa | 1.78 mm | - | 60 W/m² | - |
| 1777819816 | 5.56° C | 93% | 1006.6 hPa | 1.27 mm | - | 69 W/m² | - |
| 1777819514 | 5.56° C | 94% | 1006.5 hPa | 1.27 mm | - | 77 W/m² | - |
| 1777819212 | 5.56° C | 94% | 1006.9 hPa | 0 mm | - | 96 W/m² | - |
| 1777818908 | 5.56° C | 94% | 1006.8 hPa | 1.78 mm | - | 91 W/m² | - |
| 1777818604 | 5.56° C | 94% | 1007 hPa | 1.78 mm | - | 94 W/m² | - |
| 1777818302 | 5.56° C | 94% | 1006.9 hPa | 1.27 mm | - | 99 W/m² | - |
| 1777817998 | 5.56° C | 94% | 1007 hPa | 1.27 mm | - | 96 W/m² | - |
| 1777817695 | 5.56° C | 94% | 1007.1 hPa | 1.78 mm | - | 90 W/m² | - |
| 1777817392 | 5.56° C | 94% | 1006.9 hPa | 1.78 mm | - | 80 W/m² | - |
| 1777817089 | 5.56° C | 94% | 1007 hPa | 1.27 mm | - | 64 W/m² | - |
| 1777816785 | 5.56° C | 94% | 1007.3 hPa | 1.27 mm | - | 58 W/m² | - |
| 1777816483 | 5.56° C | 94% | 1007.2 hPa | 1.78 mm | - | 51 W/m² | - |
* Rain latest hour (hover to see other rain measurements)
** Current wind speed in m/s (hover to see current wind gust speed)